Location: Noordwijk
(52.2400°N, 4.4500°E)
Time: 12:23:46
(UTC+00:00)

AO-85 - Pass Details

Date: 08 December 2022
Orbit: 516 x 753 km, 64.8° (Epoch: 04 January)

Event Time Altitude Azimuth Distance (km) Brightness Sun altitude
Rises 17:20:32 0° 290° (WNW) 2,874 ? -15.8°
Reaches altitude 10° 17:23:41 10° 313° (NW) 1,918 ? -16.3°
Maximum altitude 17:26:19 16° 351° (N) 1,546 ? -16.6°
Enters shadow 17:27:44 14° 14° (NNE) 1,638 ? -16.9°
